Time,TemperatureF,DewpointF,PressureIn,WindDirection,WindDirectionDegrees,WindSpeedMPH,WindSpeedGustMPH,Humidity,HourlyPrecipIn,Conditions,Clouds,dailyrainin,SolarRadiationWatts/m^2,SoftwareType,DateUTC
2013-04-04 00:07:00,50.8,51.0,30.05,SSW,213,8.0,18.0,99,0.00,,,0.01,0,weatherlink.com 1.10,2013-04-04 07:07:00,
2013-04-04 00:22:00,50.4,50.0,30.04,SSE,159,6.0,11.0,99,0.00,,,0.01,0,weatherlink.com 1.10,2013-04-04 07:22:00,
2013-04-04 00:37:00,50.5,50.0,30.04,South,173,7.0,8.0,99,0.00,,,0.01,0,weatherlink.com 1.10,2013-04-04 07:37:00,
2013-04-04 00:52:00,50.8,51.0,30.04,South,171,4.0,12.0,99,0.00,,,0.01,0,weatherlink.com 1.10,2013-04-04 07:52:00,
2013-04-04 01:07:00,50.5,50.0,30.03,South,190,5.0,8.0,99,0.00,,,0.00,0,weatherlink.com 1.10,2013-04-04 08:07:00,
2013-04-04 01:22:00,50.5,50.0,30.02,ESE,111,1.0,6.0,99,0.01,,,0.01,0,weatherlink.com 1.10,2013-04-04 08:22:00,
2013-04-04 01:52:00,50.6,50.0,30.02,SE,140,4.0,6.0,98,0.04,,,0.04,0,weatherlink.com 1.10,2013-04-04 08:52:00,
2013-04-04 02:07:00,50.6,50.0,30.02,East,90,4.0,6.0,98,0.07,,,0.07,0,weatherlink.com 1.10,2013-04-04 09:07:00,
2013-04-04 02:24:00,50.8,50.0,30.01,ESE,102,1.0,6.0,98,0.11,,,0.12,0,weatherlink.com 1.10,2013-04-04 09:24:00,
2013-04-04 02:38:00,50.8,50.0,30.01,ESE,119,1.0,5.0,98,0.14,,,0.16,0,weatherlink.com 1.10,2013-04-04 09:38:00,
2013-04-04 02:52:00,51.0,51.0,30.02,SE,139,0.0,5.0,98,0.15,,,0.19,0,weatherlink.com 1.10,2013-04-04 09:52:00,
2013-04-04 03:08:00,50.9,50.0,30.01,ESE,111,2.0,6.0,98,0.13,,,0.21,0,weatherlink.com 1.10,2013-04-04 10:08:00,
2013-04-04 03:23:00,50.9,50.0,30.01,East,92,4.0,5.0,98,0.13,,,0.25,0,weatherlink.com 1.10,2013-04-04 10:23:00,
2013-04-04 03:38:00,51.2,51.0,30.01,SE,140,3.0,5.0,98,0.11,,,0.27,0,weatherlink.com 1.10,2013-04-04 10:38:00,
2013-04-04 03:54:00,51.2,51.0,29.99,East,89,3.0,6.0,98,0.13,,,0.32,0,weatherlink.com 1.10,2013-04-04 10:54:00,
2013-04-04 04:07:00,51.5,51.0,29.99,ESE,118,2.0,5.0,98,0.13,,,0.35,0,weatherlink.com 1.10,2013-04-04 11:07:00,
2013-04-04 04:23:00,51.9,51.0,30.00,ESE,116,5.0,6.0,98,0.19,,,0.44,0,weatherlink.com 1.10,2013-04-04 11:23:00,
2013-04-04 04:38:00,52.2,52.0,29.99,East,93,4.0,6.0,98,0.24,,,0.51,0,weatherlink.com 1.10,2013-04-04 11:38:00,
2013-04-04 04:54:00,52.4,52.0,29.99,East,97,5.0,8.0,98,0.26,,,0.58,0,weatherlink.com 1.10,2013-04-04 11:54:00,
2013-04-04 05:09:00,52.6,52.0,29.99,East,82,2.0,7.0,98,0.25,,,0.61,0,weatherlink.com 1.10,2013-04-04 12:09:00,
2013-04-04 05:39:00,53.5,53.0,29.98,SE,142,2.0,11.0,98,0.16,,,0.68,0,weatherlink.com 1.10,2013-04-04 12:39:00,
2013-04-04 05:54:00,53.5,53.0,29.99,SE,139,5.0,8.0,98,0.15,,,0.74,0,weatherlink.com 1.10,2013-04-04 12:54:00,
2013-04-04 06:09:00,53.5,53.0,29.99,SE,144,6.0,10.0,98,0.16,,,0.77,0,weatherlink.com 1.10,2013-04-04 13:09:00,
2013-04-04 06:24:00,53.6,53.0,30.00,ESE,117,7.0,9.0,98,0.14,,,0.80,0,weatherlink.com 1.10,2013-04-04 13:24:00,
2013-04-04 06:54:00,54.1,54.0,30.00,South,173,7.0,9.0,98,0.08,,,0.82,0,weatherlink.com 1.10,2013-04-04 13:54:00,
2013-04-04 07:09:00,54.5,54.0,30.01,South,175,6.0,12.0,98,0.05,,,0.82,0,weatherlink.com 1.10,2013-04-04 14:09:00,
2013-04-04 07:24:00,54.6,54.0,30.01,SSE,157,6.0,18.0,98,0.02,,,0.82,11,weatherlink.com 1.10,2013-04-04 14:24:00,
2013-04-04 07:38:00,54.6,54.0,30.02,SSE,166,8.0,13.0,98,0.01,,,0.83,12,weatherlink.com 1.10,2013-04-04 14:38:00,
2013-04-04 07:54:00,54.6,54.0,30.02,South,173,9.0,19.0,98,0.01,,,0.83,23,weatherlink.com 1.10,2013-04-04 14:54:00,
2013-04-04 08:09:00,54.6,54.0,30.03,SSE,160,11.0,16.0,98,0.01,,,0.83,30,weatherlink.com 1.10,2013-04-04 15:09:00,
2013-04-04 08:25:00,54.7,54.0,30.04,South,191,6.0,19.0,98,0.01,,,0.83,51,weatherlink.com 1.10,2013-04-04 15:25:00,
2013-04-04 08:39:00,54.8,54.0,30.04,SSW,198,8.0,15.0,98,0.00,,,0.83,40,weatherlink.com 1.10,2013-04-04 15:39:00,
2013-04-04 08:55:00,54.7,55.0,30.04,SSE,154,10.0,18.0,99,0.00,,,0.83,70,weatherlink.com 1.10,2013-04-04 15:55:00,
2013-04-04 09:10:00,55.0,55.0,30.05,South,178,6.0,15.0,99,0.00,,,0.83,67,weatherlink.com 1.10,2013-04-04 16:10:00,
2013-04-04 09:24:00,54.9,55.0,30.05,SSW,202,11.0,24.0,99,0.00,,,0.83,53,weatherlink.com 1.10,2013-04-04 16:24:00,
2013-04-04 09:39:00,55.1,55.0,30.05,SSE,167,7.0,19.0,99,0.01,,,0.84,109,weatherlink.com 1.10,2013-04-04 16:39:00,
2013-04-04 09:55:00,55.2,55.0,30.05,SSE,167,7.0,16.0,99,0.01,,,0.84,72,weatherlink.com 1.10,2013-04-04 16:55:00,
2013-04-04 10:10:00,55.4,55.0,30.07,South,184,8.0,13.0,99,0.02,,,0.85,95,weatherlink.com 1.10,2013-04-04 17:10:00,
2013-04-04 10:25:00,55.7,56.0,30.07,SW,214,10.0,14.0,99,0.02,,,0.85,127,weatherlink.com 1.10,2013-04-04 17:25:00,
2013-04-04 10:40:00,55.7,56.0,30.07,South,173,9.0,15.0,99,0.01,,,0.85,90,weatherlink.com 1.10,2013-04-04 17:40:00,
2013-04-04 10:55:00,55.7,56.0,30.07,SSE,167,10.0,15.0,99,0.01,,,0.85,134,weatherlink.com 1.10,2013-04-04 17:55:00,
2013-04-04 11:10:00,55.9,56.0,30.08,South,176,12.0,16.0,99,0.00,,,0.85,165,weatherlink.com 1.10,2013-04-04 18:10:00,
2013-04-04 11:25:00,56.0,56.0,30.08,South,177,9.0,13.0,99,0.00,,,0.85,218,weatherlink.com 1.10,2013-04-04 18:25:00,
2013-04-04 11:55:00,56.8,57.0,30.08,SSE,161,10.0,13.0,99,0.01,,,0.86,251,weatherlink.com 1.10,2013-04-04 18:55:00,
2013-04-04 12:11:00,57.0,57.0,30.09,SSE,152,10.0,14.0,99,0.01,,,0.86,251,weatherlink.com 1.10,2013-04-04 19:11:00,
2013-04-04 12:25:00,57.5,58.0,30.09,SSE,160,7.0,16.0,100,0.02,,,0.87,355,weatherlink.com 1.10,2013-04-04 19:25:00,
2013-04-04 12:40:00,57.6,57.0,30.09,South,171,7.0,14.0,99,0.01,,,0.87,265,weatherlink.com 1.10,2013-04-04 19:40:00,
2013-04-04 13:11:00,57.6,57.0,30.09,South,177,6.0,12.0,99,0.01,,,0.87,188,weatherlink.com 1.10,2013-04-04 20:11:00,
2013-04-04 13:25:00,57.4,57.0,30.09,South,180,4.0,13.0,98,0.00,,,0.87,243,weatherlink.com 1.10,2013-04-04 20:25:00,
2013-04-04 13:40:00,57.2,57.0,30.09,South,178,9.0,12.0,98,0.00,,,0.87,301,weatherlink.com 1.10,2013-04-04 20:40:00,
2013-04-04 13:55:00,57.3,57.0,30.09,South,175,6.0,11.0,98,0.00,,,0.87,188,weatherlink.com 1.10,2013-04-04 20:55:00,
2013-04-04 14:11:00,56.9,56.0,30.09,South,180,5.0,14.0,97,0.00,,,0.87,206,weatherlink.com 1.10,2013-04-04 21:11:00,
2013-04-04 14:25:00,57.0,56.0,30.09,SSW,203,5.0,12.0,97,0.00,,,0.87,204,weatherlink.com 1.10,2013-04-04 21:25:00,
2013-04-04 14:41:00,58.0,57.0,30.09,SE,146,6.0,15.0,97,0.00,,,0.87,313,weatherlink.com 1.10,2013-04-04 21:41:00,
2013-04-04 14:57:00,58.4,58.0,30.09,South,181,8.0,14.0,97,0.00,,,0.87,466,weatherlink.com 1.10,2013-04-04 21:57:00,
2013-04-04 15:12:00,58.1,57.0,30.09,South,182,4.0,13.0,96,0.00,,,0.87,369,weatherlink.com 1.10,2013-04-04 22:12:00,
2013-04-04 15:27:00,58.6,58.0,30.09,South,179,10.0,14.0,96,0.00,,,0.87,269,weatherlink.com 1.10,2013-04-04 22:27:00,
2013-04-04 15:41:00,57.5,56.0,30.09,South,178,7.0,15.0,95,0.00,,,0.87,220,weatherlink.com 1.10,2013-04-04 22:41:00,
2013-04-04 15:57:00,57.8,56.0,30.10,South,188,6.0,13.0,95,0.00,,,0.87,232,weatherlink.com 1.10,2013-04-04 22:57:00,
2013-04-04 16:12:00,57.6,56.0,30.10,South,175,6.0,14.0,95,0.00,,,0.87,258,weatherlink.com 1.10,2013-04-04 23:12:00,
2013-04-04 16:27:00,57.4,56.0,30.09,South,172,5.0,11.0,95,0.00,,,0.87,204,weatherlink.com 1.10,2013-04-04 23:27:00,
2013-04-04 16:42:00,57.4,56.0,30.09,South,182,9.0,11.0,94,0.00,,,0.87,160,weatherlink.com 1.10,2013-04-04 23:42:00,
2013-04-04 16:56:00,57.4,56.0,30.09,SSW,208,5.0,9.0,94,0.00,,,0.87,153,weatherlink.com 1.10,2013-04-04 23:56:00,
2013-04-04 17:11:00,57.5,56.0,30.09,SSW,211,5.0,9.0,93,0.00,,,0.87,125,weatherlink.com 1.10,2013-04-05 00:11:00,
2013-04-04 17:27:00,57.5,55.0,30.08,SSW,193,7.0,10.0,92,0.00,,,0.87,139,weatherlink.com 1.10,2013-04-05 00:27:00,
2013-04-04 17:42:00,57.7,55.0,30.08,SSE,165,4.0,9.0,92,0.00,,,0.87,121,weatherlink.com 1.10,2013-04-05 00:42:00,
2013-04-04 17:59:00,57.4,55.0,30.08,South,181,6.0,8.0,92,0.00,,,0.87,84,weatherlink.com 1.10,2013-04-05 00:59:00,
2013-04-04 18:12:00,57.5,55.0,30.08,SSW,194,5.0,8.0,92,0.00,,,0.87,62,weatherlink.com 1.10,2013-04-05 01:12:00,
2013-04-04 18:28:00,56.9,55.0,30.08,South,180,2.0,7.0,92,0.00,,,0.87,56,weatherlink.com 1.10,2013-04-05 01:28:00,
2013-04-04 18:43:00,56.7,55.0,30.08,SSW,208,7.0,9.0,92,0.00,,,0.87,47,weatherlink.com 1.10,2013-04-05 01:43:00,
2013-04-04 19:12:00,56.2,54.0,30.08,South,187,2.0,8.0,92,0.00,,,0.87,12,weatherlink.com 1.10,2013-04-05 02:12:00,
2013-04-04 19:27:00,56.2,54.0,30.09,SSW,194,2.0,5.0,92,0.00,,,0.87,5,weatherlink.com 1.10,2013-04-05 02:27:00,
2013-04-04 19:43:00,56.1,54.0,30.08,South,184,2.0,5.0,91,0.00,,,0.87,0,weatherlink.com 1.10,2013-04-05 02:43:00,
2013-04-04 19:58:00,55.8,53.0,30.08,South,178,4.0,6.0,91,0.01,,,0.88,0,weatherlink.com 1.10,2013-04-05 02:58:00,
2013-04-04 20:29:00,55.9,53.0,30.09,South,181,2.0,6.0,89,0.01,,,0.88,0,weatherlink.com 1.10,2013-04-05 03:29:00,
2013-04-04 20:44:00,55.8,53.0,30.09,South,176,2.0,6.0,89,0.01,,,0.88,0,weatherlink.com 1.10,2013-04-05 03:44:00,
2013-04-04 20:59:00,55.8,52.0,30.09,SSW,195,5.0,6.0,88,0.00,,,0.88,0,weatherlink.com 1.10,2013-04-05 03:59:00,
2013-04-04 21:29:00,55.8,52.0,30.11,South,173,2.0,6.0,87,0.01,,,0.89,0,weatherlink.com 1.10,2013-04-05 04:29:00,
2013-04-04 21:44:00,55.9,52.0,30.11,South,178,2.0,6.0,87,0.01,,,0.89,0,weatherlink.com 1.10,2013-04-05 04:44:00,
2013-04-04 22:00:00,56.0,52.0,30.11,SSW,200,2.0,10.0,86,0.00,,,0.89,0,weatherlink.com 1.10,2013-04-05 05:00:00,
2013-04-04 22:29:00,55.5,52.0,30.11,SSW,202,4.0,8.0,88,0.00,,,0.89,0,weatherlink.com 1.10,2013-04-05 05:29:00,
2013-04-04 22:45:00,55.9,52.0,30.11,South,181,2.0,5.0,87,0.00,,,0.89,0,weatherlink.com 1.10,2013-04-05 05:45:00,
2013-04-04 23:00:00,55.9,52.0,30.12,SSW,196,5.0,9.0,86,0.00,,,0.89,0,weatherlink.com 1.10,2013-04-05 06:00:00,
2013-04-04 23:14:00,55.9,52.0,30.12,SSW,200,4.0,6.0,85,0.00,,,0.89,0,weatherlink.com 1.10,2013-04-05 06:14:00,
2013-04-04 23:30:00,55.8,51.0,30.12,South,188,3.0,7.0,83,0.00,,,0.89,0,weatherlink.com 1.10,2013-04-05 06:30:00,
2013-04-04 23:45:00,55.4,50.0,30.12,South,191,4.0,5.0,83,0.00,,,0.89,0,weatherlink.com 1.10,2013-04-05 06:45:00,